Location: Newark
(41.6500°N, 71.4833°W)
Time: 16:04:31
(UTC+00:00)

Transit 2A Rocket - Pass Details

Date: 02 February 2020
Orbit: 592 x 911 km, 66.7° (Epoch: 16 February)

Event Time Altitude Azimuth Distance (km) Brightness Sun altitude
Rises 17:14:18 0° 325° (NW) 3,069 7.7 31.4°
Reaches altitude 10° 17:16:34 10° 322° (NW) 2,196 7.1 31.4°
Maximum altitude 17:21:29 58° 244° (WSW) 884 6.1 31.3°
Drops below altitude 10° 17:26:52 10° 166° (SSE) 2,393 8.8 31.2°
Sets 17:29:26 0° 163° (SSE) 3,369 9.2 31.1°
